Newark, NJ

10:11 PM EST on January 17, 2018 (GMT -0500)
Newark International

Weather History for KEWR - April, 2013

Change the Weather History Date:

Thursday, April 4, 2013

  Actual Average Record
Temperature  
Mean Temperature 43 °F 49 °F  
Max Temperature 54 °F 58 °F 82 °F (1950)
Min Temperature 31 °F 40 °F 23 °F (1954)
Degree Days  
Heating Degree Days 22 16  
Month to date heating degree days 87 68  
Since 1 July heating degree days 4226 4412  
Cooling Degree Days 0 0  
Month to date cooling degree days 0 0  
Year to date cooling degree days 0 1  
Moisture  
Dew Point 19 °F    
Average Humidity 38    
Maximum Humidity 49    
Minimum Humidity 26    
Precipitation  
Precipitation 0.00 in 0.14 in 1.86 in (1987)
Month to date precipitation T 0.59  
Year to date precipitation 9.34 11.19  
Snow  
Snow 0.00 in 0.00 in 4.10 in (1957)
Month to date snowfall 0.0 0.2  
Since 1 July snowfall 29.5 27.8  
Snow Depth 0.00 in    
Sea Level Pressure  
Sea Level Pressure 30.26 in    
Wind  
Wind Speed 8 mph (SW)    
Max Wind Speed 20 mph    
Max Gust Speed 22 mph    
Visibility 10 miles    
Events      
T = Trace of Precipitation, MM = Missing Value Source: NWS Daily Summary

Daily Weather History Graph

Daily Weather History Graph

Search for Another Location

Airport or City:

Trip Planner

Search our weather history database for the weather conditions in past years. The results will help you decide how hot, cold, wet, or windy it might be!

Date:

Astronomy

Apr. 04, 2013 Rise Set
Actual Time 6:34 AM EDT 7:24 PM EDT
Civil Twilight 6:07 AM EDT 7:52 PM EDT
Nautical Twilight 5:34 AM EDT 8:25 PM EDT
Astronomical Twilight 5:00 AM EDT 8:59 PM EDT
Moon 3:01 AM EDT (4/4) 1:38 PM EDT (4/4)
Length of Visible Light 13h 45m
Length of Day
12h 49m
Waning Crescent, 34% of the Moon is Illuminated
Apr 4
Waning Crescent
Apr 10
New
Apr 18
First Quarter
Apr 25
Full
May 2
Last Quarter

Hourly Weather History & Observations

Time (EDT) Temp. Windchill Dew Point Humidity Pressure Visibility Wind Dir Wind Speed Gust Speed Precip Events Conditions
12:51 AM 36.0 °F 26.3 °F 12.9 °F 39% 30.28 in 10.0 mi NNW 16.1 mph 25.3 mph N/A   Clear
1:51 AM 35.1 °F 26.4 °F 12.9 °F 40% 30.29 in 10.0 mi NNW 12.7 mph 18.4 mph N/A   Clear
2:51 AM 34.0 °F 28.8 °F 14.0 °F 44% 30.30 in 10.0 mi WNW 5.8 mph - N/A   Clear
3:51 AM 32.0 °F 26.4 °F 15.1 °F 50% 30.33 in 10.0 mi SW 5.8 mph - N/A   Clear
4:51 AM 33.8 °F 28.6 °F 15.8 °F 48% 30.34 in 10.0 mi West 5.8 mph - N/A   Clear
5:51 AM 32.0 °F 24.2 °F 16.0 °F 52% 30.35 in 10.0 mi West 9.2 mph - N/A   Clear
6:51 AM 32.0 °F 24.2 °F 16.0 °F 52% 30.39 in 10.0 mi WNW 9.2 mph - N/A   Partly Cloudy
7:51 AM 35.6 °F 29.2 °F 15.8 °F 44% 30.39 in 10.0 mi WNW 8.1 mph - N/A   Partly Cloudy
8:51 AM 37.9 °F 32.7 °F 16.0 °F 41% 30.39 in 10.0 mi WNW 6.9 mph - N/A   Scattered Clouds
9:51 AM 39.0 °F - 16.0 °F 39% 30.38 in 10.0 mi Calm Calm - N/A   Mostly Cloudy
10:51 AM 42.1 °F 39.2 °F 18.0 °F 38% 30.36 in 10.0 mi WNW 4.6 mph - N/A   Mostly Cloudy
11:51 AM 44.1 °F 40.8 °F 17.1 °F 34% 30.33 in 10.0 mi SSW 5.8 mph - N/A   Mostly Cloudy
12:51 PM 48.9 °F - 19.0 °F 31% 30.30 in 10.0 mi WSW 8.1 mph - N/A   Mostly Cloudy
1:51 PM 50.0 °F - 18.0 °F 28% 30.26 in 10.0 mi SW 3.5 mph - N/A   Mostly Cloudy
2:51 PM 53.1 °F - 19.9 °F 27% 30.22 in 10.0 mi SSW 6.9 mph - N/A   Mostly Cloudy
3:51 PM 48.9 °F - 25.0 °F 39% 30.19 in 10.0 mi SSE 11.5 mph - N/A   Mostly Cloudy
4:51 PM 48.2 °F - 26.6 °F 43% 30.18 in 10.0 mi SE 10.4 mph - N/A   Mostly Cloudy
5:51 PM 48.9 °F - 27.0 °F 43% 30.16 in 10.0 mi SSE 8.1 mph - N/A   Overcast
6:51 PM 48.9 °F - 28.9 °F 46% 30.16 in 10.0 mi SSE 8.1 mph - N/A   Overcast
7:51 PM 48.0 °F - 27.0 °F 44% 30.14 in 10.0 mi South 11.5 mph - N/A   Overcast
8:51 PM 48.0 °F - 21.9 °F 36% 30.13 in 10.0 mi SSW 13.8 mph - N/A   Overcast
9:51 PM 46.9 °F - 17.1 °F 30% 30.13 in 10.0 mi South 11.5 mph - N/A   Overcast
10:51 PM 44.1 °F 38.1 °F 24.1 °F 45% 30.12 in 10.0 mi South 11.5 mph - N/A   Overcast
11:51 PM 43.0 °F 37.7 °F 23.0 °F 45% 30.09 in 10.0 mi South 9.2 mph - N/A   Overcast